This demonstration page uses our WeatherBlox Daily Observations layout. Learn more.

36.19886, -115.1175

Hourly Observations for June 24, 2018

Temp ( °F °C ) Dew Point ( °F °C ) Humidity (%) Winds ( mph kmh ) Pressure ( in mb ) Visibility ( mi km ) Precip ( " mm )
12:53 am 00:53 Clear 91 32.8 32 0 12 12 W 5 7 29.62 1003 10 16.09344 0 0
1:53 am 01:53 Clear 86 30 36 2.2 17 17 WSW 3 6 29.65 1004 10 16.09344 0 0
2:53 am 02:53 Clear 84 28.9 40 4.4 21 21 NE 10 17 29.65 1004 10 16.09344 0 0
3:53 am 03:53 Clear 83 28.3 42 5.6 24 24 N 8 13 29.68 1005 10 16.09344 0 0
4:53 am 04:53 Clear 81 27.2 45 7.2 28 28 N 6 9 29.71 1006 10 16.09344 0 0
5:53 am 05:53 Sunny 81 27.2 47 8.3 30 30 NNE 6 9 29.74 1007 10 16.09344 0 0
6:53 am 06:53 Sunny 85 29.4 49 9.4 29 29 ENE 8 13 29.77 1008 10 16.09344 0 0
7:53 am 07:53 Sunny 88 31.1 48 8.9 25 25 ENE 6 9 29.8 1009 10 16.09344 0 0
8:53 am 08:53 Sunny 91 32.8 38 3.3 15 15 ESE 8 13 29.8 1009 10 16.09344 0 0
9:53 am 09:53 Sunny 94 34.4 33 0.6 12 12 E 12 19 29.83 1010 10 16.09344 0 0
10:53 am 10:53 Sunny 96 35.6 35 1.7 12 12 ESE 9 15 29.83 1010 10 16.09344 0 0
11:53 am 11:53 Sunny 96 35.6 39 3.9 14 14 SE 10 17 29.83 1010 10 16.09344 0 0
12:53 pm 12:53 Sunny 98 36.7 41 5 14 14 S 10 17 29.8 1009 10 16.09344 0 0
1:53 pm 13:53 Sunny 100 37.8 38 3.3 12 12 S 7 11 29.8 1009 10 16.09344 0 0
2:53 pm 14:53 Sunny 100 37.8 35 1.7 10 10 N 3 6 29.77 1008 10 16.09344 0 0
3:53 pm 15:53 Sunny 102 38.9 36 2.2 10 10 SSE 8 13 29.74 1007 10 16.09344 0 0
4:53 pm 16:53 Sunny 104 40 29 -1.7 7 7 undefined N/A 29.71 1006 10 16.09344 0 0
5:53 pm 17:53 Sunny 104 40 35 1.7 9 9 E 9 15 29.68 1005 10 16.09344 0 0
6:53 pm 18:53 Sunny 102 38.9 38 3.3 11 11 SE 15 24 29.68 1005 10 16.09344 0 0
7:03 pm 19:03 Sunny 101 38.3 38 3.3 11 11 SE 14 22 29.5 999 10 16.09344 0 0
7:53 pm 19:53 Sunny 99 37.2 37 2.8 12 12 SE 13 20 29.71 1006 10 16.09344 0 0
8:53 pm 20:53 Clear 97 36.1 35 1.7 11 11 SE 7 11 29.71 1006 10 16.09344 0 0
9:53 pm 21:53 Clear 93 33.9 35 1.7 13 13 E 7 11 29.74 1007 10 16.09344 0 0
10:53 pm 22:53 Clear 92 33.3 35 1.7 13 13 NE 6 9 29.74 1007 10 16.09344 0 0
11:53 pm 23:53 Clear 90 32.2 35 1.7 14 14 Calm 29.74 1007 10 16.09344 0 0

Powered by AerisWeather